Voltar ao catálogo

STARLINK-6287

AtivoComunicaçõesVLEO
NORAD 56404·PAYLOAD·🇺🇸 United States

Lançado May 4, 2023 de Cape Canaveral Space Force Station

Loading…

Próximas Passagens (próximas 24 horas)

TLE

AtualizadoSource: CelesTrak SupGP

Época: Sep 14, 2026, 21:44 UTC

1 56404C 23061AG  26257.90604167 -.00007831  00000+0 -28366-3 0  2571
2 56404  42.9995 198.6455 0000954 233.7686   8.2371 15.27578793    16

Acompanhe STARLINK-6287 em tempo real com AllMySat

Download on the App Store